Location: Township of Marena
(38.1747°N, 99.6798°W)
Time: 10:28:34
(UTC+00:00)

Cosmos 2084 - Pass Details

Date: 26 October 2020
Orbit: 564 x 619 km, 62.8° (Epoch: 25 November)

Event Time Altitude Azimuth Distance (km) Brightness Sun altitude
Exits shadow 11:25:35 - 198° (SSW) 2,447 6.5 -19.0°
Reaches altitude 10° 11:27:01 10° 194° (SSW) 1,883 5.9 -18.7°
Maximum altitude 11:31:08 50° 119° (ESE) 745 4.3 -17.9°
Drops below altitude 10° 11:35:21 10° 44° (NE) 1,929 6.7 -17.0°
Sets 11:37:41 0° 39° (NE) 2,845 7.5 -16.6°
